St. Cloud, MN

7:53 PM CDT on July 25, 2017 (GMT -0500)
Saint Cloud Regional

Weather History for KSTC - April, 2013

Change the Weather History Date:

Monday, April 8, 2013

  Actual Average Record
Temperature  
Mean Temperature 39 °F 41 °F  
Max Temperature 42 °F 52 °F 81 °F (1931)
Min Temperature 35 °F 29 °F 7 °F (1997)
Degree Days  
Heating Degree Days 26 24  
Month to date heating degree days 261 208  
Since 1 July heating degree days 7859 7758  
Cooling Degree Days 0 0  
Month to date cooling degree days 0 0  
Year to date cooling degree days 0 0  
Moisture  
Dew Point 35 °F    
Average Humidity 90    
Maximum Humidity 100    
Minimum Humidity 79    
Precipitation  
Precipitation 0.09 in 0.08 in 0.76 in (1969)
Month to date precipitation 0.38 0.57  
Year to date precipitation 4.79 3.36  
Snow  
Snow 0.00 in 0.20 in 4.00 in (1908)
Month to date snowfall T 1.2  
Since 1 July snowfall 54.1 43.9  
Snow Depth T in    
Sea Level Pressure  
Sea Level Pressure 29.84 in    
Wind  
Wind Speed 7 mph (NE)    
Max Wind Speed 13 mph    
Max Gust Speed 17 mph    
Visibility 6 miles    
Events Rain    
T = Trace of Precipitation, MM = Missing Value Source: NWS Daily Summary

Daily Weather History Graph

Daily Weather History Graph

Search for Another Location

Airport or City:

Trip Planner

Search our weather history database for the weather conditions in past years. The results will help you decide how hot, cold, wet, or windy it might be!

Date:

Astronomy

Apr. 08, 2013 Rise Set
Actual Time 6:42 AM CDT 7:53 PM CDT
Civil Twilight 6:12 AM CDT 8:24 PM CDT
Nautical Twilight 5:35 AM CDT 9:01 PM CDT
Astronomical Twilight 4:57 AM CDT 9:39 PM CDT
Moon 5:37 AM CDT (4/8) 6:26 PM CDT (4/8)
Length of Visible Light 14h 11m
Length of Day
13h 11m
Waning Crescent, 3% of the Moon is Illuminated
Apr 8
Waning Crescent
Apr 10
New
Apr 18
First Quarter
Apr 25
Full
May 2
Last Quarter

Hourly Weather History & Observations

Time (CDT) Temp. Windchill Dew Point Humidity Pressure Visibility Wind Dir Wind Speed Gust Speed Precip Events Conditions
12:40 AM 37.4 °F 31.4 °F 35.6 °F 93% 29.74 in 5.0 mi East 8.1 mph - 0.01 in   Overcast
12:53 AM 37.0 °F 31.6 °F 36.0 °F 96% 29.79 in 4.0 mi ENE 6.9 mph - 0.01 in   Overcast
1:11 AM 37.4 °F 32.1 °F 35.6 °F 93% 29.74 in 4.0 mi East 6.9 mph - N/A   Overcast
1:25 AM 37.4 °F 33.8 °F 35.6 °F 93% 29.74 in 4.0 mi East 4.6 mph - N/A   Overcast
1:53 AM 37.0 °F 32.4 °F 36.0 °F 96% 29.79 in 4.0 mi East 5.8 mph - N/A   Overcast
2:11 AM 37.4 °F 33.8 °F 35.6 °F 93% 29.73 in 2.5 mi ENE 4.6 mph - N/A   Overcast
2:23 AM 37.4 °F 33.8 °F 35.6 °F 93% 29.73 in 2.5 mi NE 4.6 mph - N/A   Overcast
2:44 AM 37.4 °F 33.8 °F 35.6 °F 93% 29.72 in 3.0 mi ENE 4.6 mph - N/A   Overcast
2:53 AM 37.0 °F 32.4 °F 36.0 °F 96% 29.77 in 3.0 mi ENE 5.8 mph - N/A   Overcast
3:53 AM 37.0 °F 33.3 °F 36.0 °F 96% 29.76 in 3.0 mi NE 4.6 mph - N/A   Overcast
4:01 AM 35.6 °F 29.9 °F 35.6 °F 100% 29.71 in 2.5 mi ENE 6.9 mph - N/A   Overcast
4:53 AM 36.0 °F 32.1 °F 35.1 °F 97% 29.76 in 1.8 mi NNE 4.6 mph - 0.02 in Rain Light Rain
5:04 AM 35.6 °F 29.9 °F 35.6 °F 100% 29.71 in 2.5 mi NE 6.9 mph - 0.01 in Rain Light Rain
5:38 AM 35.6 °F 29.9 °F 35.6 °F 100% 29.69 in 3.0 mi NE 6.9 mph - 0.04 in Rain Light Rain
5:48 AM 35.6 °F 29.9 °F 35.6 °F 100% 29.69 in 2.5 mi ENE 6.9 mph - 0.04 in   Overcast
5:53 AM 36.0 °F 31.1 °F 35.1 °F 97% 29.74 in 2.5 mi NE 5.8 mph - 0.04 in   Overcast
6:01 AM 35.6 °F 29.9 °F 35.6 °F 100% 29.69 in 3.0 mi NE 6.9 mph - N/A   Overcast
6:53 AM 36.0 °F 31.1 °F 35.1 °F 97% 29.77 in 5.0 mi North 5.8 mph - N/A   Overcast
7:22 AM 35.6 °F 31.7 °F 35.6 °F 100% 29.73 in 1.8 mi North 4.6 mph - 0.01 in Rain Light Rain
7:34 AM 35.6 °F 32.8 °F 35.6 °F 100% 29.74 in 2.5 mi North 3.5 mph - 0.02 in Rain Light Rain
7:42 AM 35.6 °F 30.7 °F 35.6 °F 100% 29.74 in 1.0 mi Variable 5.8 mph - 0.02 in Rain Light Rain
7:53 AM 36.0 °F 31.1 °F 35.1 °F 97% 29.79 in 1.5 mi NNE 5.8 mph - 0.03 in   Overcast
8:17 AM 35.6 °F 31.7 °F 35.6 °F 100% 29.75 in 1.8 mi NNE 4.6 mph - 0.00 in   Overcast
8:33 AM 37.4 °F 32.8 °F 35.6 °F 93% 29.75 in 2.5 mi NE 5.8 mph - 0.00 in   Overcast
8:42 AM 37.4 °F 32.1 °F 35.6 °F 93% 29.75 in 4.0 mi ENE 6.9 mph - 0.00 in   Overcast
8:53 AM 37.0 °F 33.3 °F 36.0 °F 96% 29.80 in 6.0 mi NE 4.6 mph - 0.00 in   Overcast
9:53 AM 39.0 °F 36.8 °F 37.0 °F 93% 29.82 in 10.0 mi North 3.5 mph - N/A   Overcast
10:53 AM 39.0 °F 33.4 °F 37.0 °F 93% 29.83 in 10.0 mi NE 8.1 mph - N/A   Overcast
11:53 AM 39.0 °F 32.8 °F 37.0 °F 93% 29.85 in 9.0 mi North 9.2 mph - N/A   Overcast
12:53 PM 39.9 °F 34.5 °F 37.0 °F 89% 29.86 in 10.0 mi NNE 8.1 mph - N/A   Overcast
1:53 PM 39.9 °F 36.7 °F 37.0 °F 89% 29.88 in 10.0 mi NNE 4.6 mph - N/A   Overcast
2:53 PM 41.0 °F 37.1 °F 37.0 °F 86% 29.90 in 10.0 mi North 5.8 mph - N/A   Overcast
3:53 PM 41.0 °F 35.8 °F 37.0 °F 86% 29.90 in 10.0 mi North 8.1 mph - N/A   Overcast
4:53 PM 41.0 °F 34.7 °F 36.0 °F 82% 29.94 in 10.0 mi NNE 10.4 mph - N/A   Overcast
5:02 PM 41.0 °F 36.4 °F 35.6 °F 81% 29.89 in 10.0 mi NNE 6.9 mph - N/A   Overcast
5:53 PM 41.0 °F 36.4 °F 36.0 °F 82% 29.98 in 10.0 mi NNE 6.9 mph - N/A   Overcast
6:48 PM 41.0 °F 34.3 °F 35.6 °F 81% 29.95 in 10.0 mi NNE 11.5 mph - N/A   Overcast
6:53 PM 41.0 °F 34.7 °F 35.1 °F 79% 30.00 in 10.0 mi NNE 10.4 mph - N/A   Overcast
7:53 PM 39.9 °F 35.1 °F 35.1 °F 83% 30.04 in 10.0 mi North 6.9 mph - N/A   Overcast
8:53 PM 39.0 °F 33.4 °F 34.0 °F 82% 30.06 in 10.0 mi NNE 8.1 mph - N/A   Overcast
9:02 PM 39.2 °F 33.6 °F 33.8 °F 81% 30.00 in 10.0 mi NNE 8.1 mph - N/A   Overcast
9:53 PM 39.0 °F 34.8 °F 33.1 °F 79% 30.09 in 10.0 mi North 5.8 mph - N/A   Overcast
10:53 PM 37.0 °F 31.6 °F 33.1 °F 86% 30.11 in 8.0 mi North 6.9 mph - N/A   Overcast
11:50 PM 37.4 °F 32.8 °F 32.0 °F 81% 30.07 in 10.0 mi North 5.8 mph - N/A   Overcast
11:53 PM 37.0 °F 32.4 °F 32.0 °F 82% 30.13 in 10.0 mi North 5.8 mph - N/A   Overcast